FW2178 Weather Reports


Display with metric or nautical units.
time (UTC)temp
F
wind
direction
speed
MPH
gust
MPH
rain 1hr
in
rain 24hr
in
rain mn
in
humidity
%
barometer
mb
20260904221636 66 150 0.0 3.0 0.00 0.00 0.00 68 1011.7
20260904221135 66 99 0.0 3.0 0.00 0.00 0.00 67 1011.9
20260904220637 66 139 0.0 0.0 0.00 0.00 0.00 66 1011.8
20260904220135 66 141 0.0 0.0 0.00 0.00 0.00 64 1012.0
20260904215637 66 149 0.0 6.0 0.00 0.00 0.00 64 1011.8
20260904215425 66 132 0.0 6.0 0.00 0.00 0.00 64 1012.0
20260904214637 66 103 0.0 4.0 0.00 0.00 0.00 63 1011.9
20260904214137 66 135 0.0 0.0 0.00 0.00 0.00 69 1011.9
20260904213638 66 161 0.0 0.0 0.00 0.00 0.00 65 1011.9
20260904213137 66 126 0.0 4.0 0.00 0.00 0.00 62 1011.8
20260904212637 66 125 0.0 4.0 0.00 0.00 0.00 63 1011.7
20260904212136 66 176 0.0 2.0 0.00 0.00 0.00 65 1011.8
20260904211637 66 128 0.0 2.0 0.00 0.00 0.00 62 1011.9
20260904211136 66 130 0.0 0.0 0.00 0.00 0.00 63 1011.8
20260904210637 65 148 0.0 1.0 0.00 0.00 0.00 64 1011.7
20260904210426 66 141 0.0 4.0 0.00 0.00 0.00 63 1011.7
20260904205637 65 152 0.0 4.0 0.00 0.00 0.00 65 1011.7
20260904205136 65 138 0.0 4.0 0.00 0.00 0.00 65 1011.7
20260904204639 65 119 0.0 6.0 0.00 0.00 0.00 66 1011.7
20260904204137 65 22 0.0 6.0 0.00 0.00 0.00 65 1011.6
20260904203636 64 133 0.0 3.0 0.00 0.00 0.00 67 1011.8
20260904203135 64 132 0.0 3.0 0.00 0.00 0.00 71 1011.9
20260904202637 64 117 0.0 3.0 0.00 0.00 0.00 69 1011.7
20260904202137 64 100 0.0 0.0 0.00 0.00 0.00 72 1011.6
20260904201636 64 141 0.0 2.0 0.00 0.00 0.00 70 1011.8
20260904201135 64 132 0.0 4.0 0.00 0.00 0.00 70 1011.7
20260904200639 64 128 0.0 4.0 0.00 0.00 0.00 68 1011.6
20260904200447 64 139 0.0 2.0 0.00 0.00 0.00 70 1011.7
20260904195638 64 153 0.0 3.0 0.00 0.00 0.00 68 1011.8
20260904195136 64 146 0.0 3.0 0.00 0.00 0.00 71 1011.7
20260904194931 64 112 1.0 14.0 0.00 0.00 0.00 70 1011.7
20260904194135 64 45 2.0 14.0 0.00 0.00 0.00 71 1012.0
20260904193636 63 149 0.0 1.0 0.00 0.00 0.00 73 1011.9
20260904193136 63 176 1.0 2.0 0.00 0.00 0.00 72 1011.8
20260904192636 63 128 0.0 2.0 0.00 0.00 0.00 74 1011.7
20260904192138 63 142 0.0 1.0 0.00 0.00 0.00 73 1011.7
20260904191636 63 162 0.0 4.0 0.00 0.00 0.00 72 1011.7
20260904191137 63 91 1.0 8.0 0.00 0.00 0.00 73 1012.1
20260904190639 64 156 0.0 8.0 0.00 0.00 0.00 73 1012.0
20260904190135 64 129 0.0 7.0 0.00 0.00 0.00 73 1011.8
20260904185636 63 109 0.0 2.0 0.00 0.00 0.00 73 1012.0
20260904185137 63 23 1.0 2.0 0.00 0.00 0.00 73 1012.0
20260904185016 62 157 0.0 1.0 0.00 0.00 0.00 76 1012.1
20260904185007 62 62 1.0 2.0 0.00 0.00 0.00 73 1011.8
20260904183639 62 122 0.0 2.0 0.00 0.00 0.00 77 1012.1
20260904183136 62 146 0.0 2.0 0.00 0.00 0.00 76 1012.0
20260904182635 63 163 1.0 2.0 0.00 0.00 0.00 75 1012.1
20260904182135 63 106 1.0 3.0 0.00 0.00 0.00 75 1011.8
20260904181636 62 102 2.0 3.0 0.00 0.00 0.00 74 1011.9
20260904181425 62 138 1.0 1.0 0.00 0.00 0.00 75 1011.6
20260904180636 62 136 0.0 0.0 0.00 0.00 0.00 74 1011.7
20260904180427 62 127 0.0 0.0 0.00 0.00 0.00 73 1011.7
20260904175929 62 93 0.0 0.0 0.00 0.00 0.00 74 1011.8
20260904175138 62 142 0.0 0.0 0.00 0.00 0.00 76 1011.6
20260904174928 62 138 0.0 0.0 0.00 0.00 0.00 78 1011.8
20260904174137 62 122 0.0 0.0 0.00 0.00 0.00 75 1011.8
20260904173635 62 92 0.0 0.0 0.00 0.00 0.00 73 1011.9
20260904173135 62 158 0.0 8.0 0.00 0.00 0.00 77 1011.7
20260904172637 61 171 1.0 8.0 0.00 0.00 0.00 76 1011.7
20260904172426 61 184 0.0 8.0 0.00 0.00 0.00 78 1011.8
20260904171639 60 184 0.0 8.0 0.00 0.00 0.00 78 1011.8
20260904171137 60 166 0.0 4.0 0.00 0.00 0.00 79 1011.7
20260904170921 59 135 0.0 2.0 0.00 0.00 0.00 82 1011.7
20260904170135 59 40 0.0 3.0 0.00 0.00 0.00 81 1011.8
20260904165637 59 130 0.0 3.0 0.00 0.00 0.00 82 1011.8
20260904165138 59 147 0.0 4.0 0.00 0.00 0.00 84 1011.9
20260904164636 59 131 0.0 4.0 0.00 0.00 0.00 82 1011.5
20260904164136 59 333 0.0 2.0 0.00 0.00 0.00 83 1011.8
20260904163636 59 92 0.0 1.0 0.00 0.00 0.00 86 1011.9
20260904163137 58 126 0.0 0.0 0.00 0.00 0.00 84 1011.8
20260904162637 59 126 0.0 2.0 0.00 0.00 0.00 87 1011.9
20260904162136 58 137 0.0 3.0 0.00 0.00 0.00 84 1012.1
20260904161637 58 76 0.0 3.0 0.00 0.00 0.00 84 1011.9
20260904161426 58 150 0.0 3.0 0.00 0.00 0.00 85 1012.0
20260904160922 58 136 0.0 3.0 0.00 0.00 0.00 86 1012.0
20260904160137 58 22 0.0 0.0 0.00 0.00 0.00 89 1012.0
20260904155635 57 23 0.0 0.0 0.00 0.00 0.00 91 1011.9
20260904155136 56 23 0.0 7.0 0.00 0.00 0.00 92 1011.7
20260904154637 56 22 0.0 7.0 0.00 0.00 0.00 92 1012.0
20260904154137 55 10 0.0 1.0 0.00 0.00 0.00 93 1011.9
20260904153943 55 130 0.0 1.0 0.00 0.00 0.00 94 1011.6
20260904153137 55 138 0.0 1.0 0.00 0.00 0.00 96 1012.0
20260904152637 54 74 0.0 1.0 0.00 0.00 0.00 97 1011.7
20260904152136 54 127 0.0 0.0 0.00 0.00 0.00 97 1011.5
20260904151635 53 128 0.0 0.0 0.00 0.00 0.00 98 1011.4
20260904151136 53 128 0.0 0.0 0.00 0.00 0.00 98 1011.5
20260904150637 53 128 0.0 0.0 0.00 0.00 0.00 98 1011.4
20260904150136 53 128 0.0 0.0 0.00 0.00 0.00 98 1011.6
20260904145636 53 128 0.0 0.0 0.00 0.00 0.00 98 1011.2
20260904145138 53 128 0.0 0.0 0.00 0.00 0.00 98 1011.3
20260904144635 52 128 0.0 0.0 0.00 0.00 0.00 98 1011.1
20260904144136 52 128 0.0 0.0 0.00 0.00 0.00 98 1011.2
20260904143637 52 128 0.0 0.0 0.00 0.00 0.00 98 1011.2
20260904143135 52 128 0.0 0.0 0.00 0.00 0.00 98 1011.3
20260904142636 52 128 0.0 0.0 0.00 0.00 0.00 98 1011.1
20260904142137 52 128 0.0 0.0 0.00 0.00 0.00 98 1011.2
20260904141636 52 128 0.0 0.0 0.00 0.00 0.00 98 1011.2
20260904141137 52 128 0.0 0.0 0.00 0.00 0.00 98 1011.0
20260904140933 52 128 0.0 0.0 0.00 0.00 0.00 98 1010.9
20260904140135 52 128 0.0 0.0 0.00 0.00 0.00 98 1011.0
20260904135636 52 128 0.0 0.0 0.00 0.00 0.00 98 1010.9
20260904135136 52 128 0.0 0.0 0.00 0.00 0.00 98 1010.9
20260904134635 52 128 0.0 0.0 0.00 0.00 0.00 98 1010.9
20260904134201 52 128 0.0 0.0 0.00 0.00 0.00 98 1010.5
20260904133636 52 128 0.0 0.0 0.00 0.00 0.00 98 1010.7
20260904133137 52 128 0.0 0.0 0.00 0.00 0.00 98 1010.7
20260904132637 52 128 0.0 0.0 0.00 0.00 0.00 97 1010.2
20260904132135 52 128 0.0 0.0 0.00 0.00 0.00 97 1010.3
20260904131928 52 128 0.0 0.0 0.00 0.00 0.00 97 1010.2
20260904131137 52 128 0.0 0.0 0.00 0.00 0.00 97 1010.3
20260904130927 52 128 0.0 0.0 0.00 0.00 0.00 97 1010.2
20260904130138 52 128 0.0 0.0 0.00 0.00 0.00 97 1010.3
20260904125636 52 128 0.0 0.0 0.00 0.00 0.00 97 1010.3
20260904125137 52 128 0.0 0.0 0.00 0.00 0.00 97 1010.1
20260904124635 52 128 0.0 0.0 0.00 0.00 0.00 97 1010.2
20260904124136 52 128 0.0 0.0 0.00 0.00 0.00 97 1010.1
20260904123926 53 128 0.0 0.0 0.00 0.00 0.00 97 1009.9
20260904123427 53 128 0.0 0.0 0.00 0.00 0.00 97 1010.1
20260904122638 53 128 0.0 0.0 0.00 0.00 0.00 97 1010.1
20260904122136 53 128 0.0 0.0 0.00 0.00 0.00 97 1009.9
20260904121635 53 128 0.0 0.0 0.00 0.00 0.00 97 1009.9
20260904121137 53 128 0.0 0.0 0.00 0.00 0.00 97 1009.9
20260904120635 53 128 0.0 0.0 0.00 0.00 0.00 97 1009.8
20260904120144 53 128 0.0 0.0 0.00 0.00 0.00 96 1009.9
20260904115637 53 128 0.0 0.0 0.00 0.00 0.00 96 1010.1
20260904115136 53 128 0.0 0.0 0.00 0.03 0.00 96 1009.7
20260904114637 53 128 0.0 0.0 0.00 0.04 0.00 96 1009.9
20260904114142 53 128 0.0 0.0 0.00 0.04 0.00 96 1010.0
20260904113637 53 128 0.0 0.0 0.00 0.05 0.00 96 1009.7
20260904113218 53 128 0.0 0.0 0.00 0.05 0.00 96 1009.9
20260904113201 53 128 0.0 0.0 0.00 0.05 0.00 96 1009.9
20260904112137 53 128 0.0 0.0 0.00 0.05 0.00 96 1009.7
20260904111636 53 128 0.0 0.0 0.00 0.05 0.00 96 1009.6
20260904111135 53 128 0.0 0.0 0.00 0.05 0.00 96 1009.3
20260904110637 53 128 0.0 0.0 0.00 0.05 0.00 96 1009.4
20260904110135 53 128 0.0 0.0 0.00 0.05 0.00 96 1009.4
20260904105639 53 128 0.0 0.0 0.00 0.05 0.00 96 1009.3
20260904105136 53 128 0.0 0.0 0.00 0.05 0.00 96 1009.7
20260904104924 53 128 0.0 0.0 0.00 0.05 0.00 96 1009.4
20260904104135 53 128 0.0 0.0 0.00 0.05 0.00 96 1009.3
20260904103637 53 128 0.0 0.0 0.00 0.05 0.00 96 1009.7
20260904103136 53 128 0.0 0.0 0.00 0.05 0.00 96 1009.6
20260904102636 54 128 0.0 0.0 0.00 0.05 0.00 96 1009.3
20260904102136 54 128 0.0 0.0 0.00 0.05 0.00 95 1009.4
20260904101637 54 128 0.0 0.0 0.00 0.05 0.00 95 1009.3
20260904101137 54 128 0.0 0.0 0.00 0.05 0.00 95 1009.5
20260904100636 54 128 0.0 0.0 0.00 0.05 0.00 95 1009.2
20260904100423 54 128 0.0 0.0 0.00 0.05 0.00 95 1009.5
20260904095637 54 128 0.0 0.0 0.00 0.05 0.00 95 1009.4
20260904095135 54 128 0.0 0.0 0.00 0.05 0.00 95 1009.4
20260904094637 54 128 0.0 0.0 0.00 0.05 0.00 95 1009.3
20260904094137 54 128 0.0 0.0 0.00 0.05 0.00 95 1009.4
20260904093636 54 128 0.0 0.0 0.00 0.05 0.00 95 1009.5
20260904093136 54 128 0.0 2.0 0.00 0.05 0.00 95 1009.5
20260904092945 55 121 0.0 2.0 0.00 0.05 0.00 94 1009.6
20260904092444 55 132 0.0 0.0 0.00 0.05 0.00 94 1009.4
20260904091635 55 132 0.0 0.0 0.00 0.05 0.00 93 1009.2
20260904091134 55 132 0.0 0.0 0.00 0.05 0.00 93 1009.2
20260904090928 55 132 0.0 2.0 0.00 0.05 0.00 93 1009.1
20260904090134 55 132 0.0 2.0 0.00 0.05 0.00 93 1009.2
20260904085927 55 130 0.0 0.0 0.00 0.05 0.00 94 1009.4
20260904085425 55 130 0.0 0.0 0.00 0.05 0.00 94 1009.0
20260904084634 55 130 0.0 0.0 0.00 0.05 0.00 94 1009.4
20260904084134 55 130 0.0 0.0 0.00 0.05 0.00 94 1009.3
20260904083636 55 130 0.0 0.0 0.00 0.05 0.00 94 1009.2
20260904083136 55 130 0.0 0.0 0.00 0.05 0.00 94 1009.4
20260904082634 55 128 0.0 0.0 0.00 0.05 0.00 93 1009.4
20260904082135 55 144 0.0 0.0 0.00 0.05 0.00 93 1009.4
20260904081636 55 144 0.0 0.0 0.00 0.05 0.00 92 1009.3
20260904081136 55 144 0.0 0.0 0.00 0.05 0.00 93 1009.2
20260904080636 55 144 0.0 0.0 0.00 0.05 0.00 93 1009.4
20260904080135 55 145 0.0 0.0 0.00 0.05 0.00 93 1009.5
20260904075635 55 145 0.0 0.0 0.00 0.05 0.00 93 1009.8
20260904075441 55 144 0.0 0.0 0.00 0.05 0.00 93 1009.7
20260904074636 55 144 0.0 0.0 0.00 0.05 0.00 93 1009.7
20260904074136 55 144 0.0 0.0 0.00 0.05 0.00 93 1009.6
20260904073636 55 144 0.0 0.0 0.00 0.05 0.00 93 1009.7
20260904073134 55 144 0.0 0.0 0.00 0.05 0.00 93 1009.5
20260904072636 55 146 0.0 0.0 0.00 0.05 0.00 92 1009.4
20260904072137 55 146 0.0 0.0 0.00 0.05 0.00 93 1009.4
20260904071636 55 146 0.0 0.0 0.00 0.05 0.00 93 1009.5
20260904071137 55 145 0.0 0.0 0.00 0.05 0.00 93 1009.4
20260904070637 55 144 0.0 0.0 0.00 0.05 0.00 93 1009.5
20260904070137 55 144 0.0 0.0 0.00 0.05 0.00 93 1009.4
20260904065636 55 144 0.0 0.0 0.00 0.05 0.05 93 1009.5
20260904065135 55 144 0.0 0.0 0.00 0.05 0.05 92 1009.5
20260904064636 55 146 0.0 0.0 0.00 0.05 0.05 91 1009.3
20260904064421 55 146 0.0 0.0 0.00 0.05 0.05 91 1009.1
20260904063925 55 146 0.0 0.0 0.00 0.05 0.05 91 1009.3
20260904063135 55 146 0.0 0.0 0.00 0.05 0.05 92 1009.3
20260904062635 55 146 0.0 0.0 0.00 0.05 0.05 92 1009.2
20260904062139 55 146 0.0 0.0 0.00 0.05 0.05 92 1009.2
20260904061638 55 146 0.0 0.0 0.00 0.05 0.05 92 1009.1
20260904061135 55 146 0.0 0.0 0.00 0.05 0.05 92 1009.2
20260904060636 55 146 0.0 0.0 0.00 0.05 0.05 93 1009.1
20260904060138 55 146 0.0 0.0 0.00 0.05 0.05 93 1009.2
20260904055921 56 146 0.0 0.0 0.00 0.05 0.05 92 1009.2
20260904055136 56 146 0.0 0.0 0.00 0.05 0.05 91 1009.3
20260904054636 56 147 0.0 0.0 0.00 0.05 0.05 90 1009.1
20260904054136 56 147 0.0 0.0 0.00 0.05 0.05 90 1009.2
20260904053636 56 147 0.0 0.0 0.00 0.05 0.05 90 1009.2
20260904053134 56 147 0.0 0.0 0.00 0.05 0.05 90 1009.3
20260904052635 55 147 0.0 0.0 0.00 0.05 0.05 89 1009.4
20260904052135 56 147 0.0 0.0 0.00 0.05 0.05 89 1009.2
20260904051635 56 147 0.0 0.0 0.00 0.05 0.05 88 1009.3
20260904051136 56 147 0.0 0.0 0.00 0.05 0.05 87 1009.1
20260904050637 56 147 0.0 0.0 0.00 0.05 0.05 87 1009.3
20260904050417 56 147 0.0 1.0 0.00 0.05 0.05 86 1009.1
20260904045636 57 147 0.0 1.0 0.00 0.05 0.05 86 1009.1
20260904045135 56 147 0.0 0.0 0.00 0.05 0.05 86 1009.2
20260904044635 57 147 0.0 0.0 0.00 0.05 0.05 86 1009.4
20260904044137 57 147 0.0 0.0 0.00 0.05 0.05 87 1009.3
20260904043922 57 147 0.0 0.0 0.00 0.05 0.05 86 1009.1
20260904043135 57 147 0.0 0.0 0.00 0.05 0.05 86 1009.1
20260904042635 57 147 0.0 0.0 0.00 0.05 0.05 86 1009.3
20260904042135 57 146 0.0 0.0 0.00 0.05 0.05 87 1009.4
20260904041639 57 146 0.0 0.0 0.00 0.05 0.05 87 1009.3
20260904041148 57 146 0.0 0.0 0.00 0.05 0.05 86 1009.3
20260904040637 57 146 0.0 0.0 0.00 0.05 0.05 87 1009.3
20260904040135 57 146 0.0 0.0 0.00 0.05 0.05 87 1009.1
20260904035637 57 146 0.0 0.0 0.00 0.05 0.05 87 1009.1
20260904035137 57 146 0.0 0.0 0.00 0.05 0.05 87 1009.2
20260904034638 57 146 0.0 0.0 0.00 0.05 0.05 86 1009.1
20260904034135 57 146 0.0 0.0 0.00 0.05 0.05 86 1009.1
20260904033933 58 146 0.0 0.0 0.00 0.05 0.05 87 1009.1
20260904033425 58 148 0.0 0.0 0.00 0.05 0.05 85 1009.0
20260904032638 58 148 0.0 0.0 0.00 0.05 0.05 84 1008.9
20260904032132 58 148 0.0 0.0 0.00 0.05 0.05 84 1008.9
20260904031919 58 148 0.0 0.0 0.00 0.05 0.05 83 1008.9
20260904031132 58 148 0.0 0.0 0.00 0.05 0.05 84 1008.5
20260904030644 58 148 0.0 0.0 0.00 0.05 0.05 85 1008.7
20260904030133 58 148 0.0 0.0 0.00 0.05 0.05 84 1008.7
20260904025631 58 148 0.0 0.0 0.00 0.05 0.05 84 1008.5
20260904025133 58 148 0.0 0.0 0.00 0.05 0.05 81 1008.5
20260904024631 58 148 0.0 0.0 0.00 0.05 0.05 85 1008.6
20260904024132 58 148 0.0 0.0 0.00 0.05 0.05 85 1008.4
20260904023632 58 148 0.0 0.0 0.00 0.05 0.05 84 1008.3
20260904023414 58 148 0.0 0.0 0.00 0.05 0.05 82 1008.2
20260904022631 58 148 0.0 0.0 0.00 0.05 0.05 84 1008.5
20260904022132 59 148 0.0 0.0 0.00 0.05 0.05 84 1008.3
20260904021632 59 148 0.0 0.0 0.00 0.05 0.05 83 1008.2
20260904021132 59 148 0.0 0.0 0.00 0.05 0.05 80 1008.2
20260904020631 59 148 0.0 0.0 0.00 0.05 0.05 79 1008.3
20260904020131 59 148 0.0 0.0 0.00 0.05 0.05 80 1008.1
20260904015922 59 148 0.0 0.0 0.00 0.05 0.05 81 1008.3
20260904015132 59 148 0.0 0.0 0.00 0.05 0.05 81 1008.3
20260904014631 60 148 0.0 0.0 0.00 0.05 0.05 82 1008.0
20260904014132 60 148 0.0 0.0 0.00 0.05 0.05 79 1008.2
20260904013633 60 148 0.0 0.0 0.00 0.05 0.05 82 1008.1
20260904013131 60 148 0.0 0.0 0.00 0.05 0.05 80 1008.4
20260904012632 60 148 0.0 0.0 0.00 0.05 0.05 80 1008.3
20260904012133 60 148 0.0 0.0 0.00 0.05 0.05 78 1008.1
20260904011632 60 148 0.0 0.0 0.00 0.05 0.05 77 1008.2
20260904011132 60 146 0.0 0.0 0.00 0.05 0.05 80 1008.4
20260904010632 60 146 0.0 0.0 0.00 0.05 0.05 77 1008.4
20260904010131 60 148 0.0 0.0 0.00 0.05 0.05 76 1008.4
20260904005632 61 149 0.0 0.0 0.00 0.05 0.05 78 1008.2
20260904005136 61 149 0.0 0.0 0.00 0.05 0.05 76 1008.0
20260904004634 61 149 0.0 0.0 0.00 0.05 0.05 76 1008.3
20260904004132 62 149 0.0 0.0 0.00 0.05 0.05 77 1008.2
20260904003632 62 149 0.0 0.0 0.00 0.05 0.05 72 1008.2
20260904003144 63 149 0.0 0.0 0.00 0.05 0.05 75 1008.1
20260904002911 63 149 0.0 0.0 0.00 0.05 0.05 74 1008.1
20260904002130 63 151 0.0 0.0 0.00 0.05 0.05 67 1008.1
20260904001632 63 129 0.0 1.0 0.00 0.05 0.05 74 1008.3
20260904001131 63 128 0.0 1.0 0.00 0.05 0.05 75 1008.1
20260904000633 63 125 0.0 2.0 0.00 0.05 0.05 70 1008.1
20260904000132 63 110 1.0 2.0 0.00 0.05 0.05 69 1008.3
20260903235632 64 117 1.0 2.0 0.00 0.05 0.05 69 1008.3
20260903235131 63 33 1.0 2.0 0.00 0.05 0.05 72 1008.2
20260903234631 63 138 0.0 0.0 0.00 0.05 0.05 77 1008.3
20260903234132 63 138 0.0 0.0 0.00 0.06 0.05 75 1008.3
20260903233632 63 138 0.0 2.0 0.00 0.06 0.05 71 1008.3
20260903233130 63 134 0.0 2.0 0.00 0.07 0.05 78 1008.3
20260903232631 63 133 0.0 1.0 0.00 0.08 0.05 80 1008.1
20260903232131 63 137 0.0 1.0 0.00 0.09 0.05 72 1008.2
20260903231631 63 140 0.0 3.0 0.00 0.10 0.05 68 1008.5
20260903231131 64 140 0.0 4.0 0.00 0.11 0.05 70 1008.2
20260903230631 63 140 0.0 4.0 0.00 0.11 0.05 68 1008.4
20260903230130 63 141 0.0 1.0 0.00 0.13 0.05 72 1008.4
20260903225632 63 141 0.0 1.0 0.00 0.14 0.05 66 1008.5
20260903225130 64 144 0.0 1.0 0.00 0.14 0.05 66 1008.4
20260903224631 63 144 0.0 1.0 0.00 0.15 0.05 66 1008.6
20260903224131 63 143 0.0 1.0 0.00 0.16 0.05 72 1008.5
20260903223632 63 144 0.0 1.0 0.00 0.17 0.05 73 1008.8
20260903223132 63 144 0.0 1.0 0.00 0.17 0.05 68 1008.7
20260903222630 63 142 0.0 1.0 0.00 0.18 0.05 70 1008.3
20260903222130 63 144 0.0 2.0 0.00 0.19 0.05 67 1008.3